Regional Weather Roundup
Issued by NWS

Home | Current Version | Previous Version | Graphics & Text | Print | Product List | Glossary On
Versions: 1 2 3 4 5 6 7 8 9 10 11 12 13 14 15 16 17 18 19 20 21 22 23 24 25 26 27 28 29 30 31 32 33 34 35 36 37 38 39 40 41 42 43 44 45 46 47 48 49 50
000
ASUS43 KBIS 062210
RWRND

NORTH DAKOTA REGIONAL WEATHER ROUNDUP
NATIONAL WEATHER SERVICE BISMARCK ND
400 PM CST FRI MAR 06 2015

NOTE: "FAIR" INDICATES FEW OR NO CLOUDS BELOW 12,000 FEET WITH NO
SIGNIFICANT WEATHER AND/OR OBSTRUCTIONS TO VISIBILITY.


NDZ001>003-009>011-017-062300-
NORTHWEST NORTH DAKOTA

CITY           SKY/WX    TMP DP  RH WIND       PRES   REMARKS
WILLISTON      CLOUDY    48  31  51 W15       29.96S
MINOT          CLOUDY    39  25  57 SW14      29.88F
MINOT AFB      PTSUNNY   38  29  70 SW14G23   29.87F
$$

NDZ018>021-031>035-040>046-062300-
SOUTHWEST NORTH DAKOTA

CITY           SKY/WX    TMP DP  RH WIND       PRES   REMARKS
BISMARCK       CLOUDY    46  23  40 S6        29.98F
DICKINSON      PTSUNNY   54  22  28 NW21G30   29.96R
GARRISON         N/A     41  27  57 SW9       29.92F
HETTINGER ARPT CLOUDY    56  19  23 NW24G37   30.00S
$$

NDZ004>008-012>016-024-026-027-054-062300-
NORTHEAST NORTH DAKOTA

CITY           SKY/WX    TMP DP  RH WIND       PRES   REMARKS
GRAND FORKS    PTSUNNY   39  18  42 SW10      29.98F
GRND FRKS AFB  MOSUNNY   39  16  39 W13       29.97F
DEVILS LAKE    CLOUDY    34  25  69 SW14      29.95F
$$

NDZ022-023-025-028>030-036>039-047>053-062300-
SOUTHEAST NORTH DAKOTA

CITY           SKY/WX    TMP DP  RH WIND       PRES   REMARKS
FARGO          SUNNY     39  18  42 W8        30.03F
JAMESTOWN      PTSUNNY   36  21  54 SW12      30.00F
$$



USA.gov is the U.S. government's official web portal to all federal, state and local government web resources and services.